User: anonymous   Login
Location: SAPM � Hemmingford
(45.0500°N, 73.5833°W)
Time: 11:14:17
(UTC-04:00)
Language:

Cosmos 1674 Rocket - Orbit

View from above orbital plane
View from above orbital plane
View from above satellite
View from above satellite

Ground track
Ground track

The orbit data is extracted from the following two-line orbital elements,

1 15945U 85069B   17112.65731261 +.00000151 +00000-0 +15134-4 0  9990
2 15945 082.5296 185.0237 0021313 104.5834 255.7747 14.83919324691714
Epoch (UTC): 22 April 2017 15:46:31
Eccentricity: 0.0021313
inclination: 82.5296°
perigee height: 602 km
apogee height: 632 km
right ascension of ascending node: 185.0237°
argument of perigee: 104.5834°
revolutions per day: 14.83919324
mean anomaly at epoch: 255.7747°
orbit number at epoch: 69171

The dashed part of the orbit path shows where the satellite is in the earth's shadow,  

DLR